Meteo Giornale » Osservazioni meteo Stati Uniti (USA) » Norwood Memorial
ore: 17:53 - Osservazioni Meteo Norwood Memorial
Lat. 42° 11' N Lon. 71° 10' W Alt. 15 metri s.l.m.
17 °C
Coperto
Temp. 24 Ore
17 °C
22 °C
Sud/Sud-Est
7.4 Km/h
Dew point 16 °C
Umidità 93 %
Visibilità 10 Km
Il sole sorge alle ore 06:10
Il sole tramonta alle ore 19:18
| Data e Ora | Cielo e Fenomeni | T °C | DP °C | Um. % | Pres. hPa | Vis. km | Vento km/h | |
|---|---|---|---|---|---|---|---|---|
| Oggi h: 17:53 | Coperto | 17 | 16 | 93 | 1019 | 10 | S/SE 7.4 | |
| Oggi h: 16:53 | Coperto | 17 | 16 | 93 | 1018 | 10 | S 11.1 | |
| Oggi h: 15:53 | Coperto | 18 | 16 | 88 | 1018 | 14 | S 9.3 | |
| Oggi h: 14:53 | Coperto | 18 | 15 | 82 | 1018 | 10 | S 14.8 | |
| Oggi h: 13:53 | Pioggia | 19 | 17 | 88 | 1017 | 14 | S 11.1 | |
| Oggi h: 13:21 | Pioggia | 19 | 17 | 88 | 1017 | 13 | S 11.1 | |
| Oggi h: 12:53 | Coperto | 21 | 18 | 82 | 1017 | 10 | N 11.1 | |
| Oggi h: 12:00 | Coperto | 21 | 18 | 82 | 1017 | 10 | E 9.3 | |
| Oggi h: 11:53 | Coperto | 22 | 18 | 78 | 1017 | 10 | E 11.1 | |
| Oggi h: 10:53 | Coperto | 21 | 18 | 82 | 1017 | 10 | E 11.1 | |
| Oggi h: 10:17 | Pioggia | 21 | 19 | 88 | 1018 | 10 | N 7.4 | |
| Oggi h: 09:53 | Pioggia | 19 | 18 | 93 | 1018 | 10 | N 0 | |
| Oggi h: 08:53 | Pioggia Foschia | 19 | 18 | 93 | 1018 | 6 | N 0 | |
| Oggi h: 07:53 | Coperto | 19 | 18 | 93 | 1018 | 10 | N 0 | |
| Oggi h: 06:53 | Coperto | 18 | 18 | 100 | 1017 | 10 | N 0 | |
| Oggi h: 05:53 | Coperto | 18 | 17 | 93 | 1017 | 10 | N 0 | |
| Oggi h: 04:53 | Coperto | 18 | 17 | 93 | 1017 | 10 | N 0 | |
| Oggi h: 03:53 | Coperto | 18 | 17 | 93 | 1018 | 10 | N 0 | |
| Oggi h: 02:53 | Coperto | 18 | 17 | 93 | 1018 | 10 | N 5.5 | |
| Oggi h: 01:53 | Coperto | 18 | 17 | 93 | 1018 | 10 | N 5.5 | |
| Oggi h: 00:53 | Coperto | 18 | 17 | 93 | 1018 | 10 | N 5.5 | |
| Ieri h: 23:53 | Coperto | 18 | 17 | 93 | 1018 | 10 | N 5.5 | |
| Ieri h: 22:53 | Sereno | 18 | 17 | 93 | 1018 | 10 | S 7.4 | |
| Ieri h: 21:53 | Sereno | 18 | 16 | 88 | 1018 | 10 | S/SE 7.4 | |
| Ieri h: 20:53 | Sereno | 19 | 16 | 82 | 1018 | 10 | S 7.4 | |
| Ieri h: 19:53 | Sereno | 20 | 16 | 77 | 1018 | 10 | S 9.3 | |
| Ieri h: 18:53 | Sereno | 21 | 16 | 73 | 1018 | 10 | S 9.3 | |



